Regional Weather Roundup
Issued by NWS Charleston, SC

Current Version | Previous Version | Graphics & Text | Print | Product List | Glossary On
Versions: 1 2 3 4 5 6 7 8 9 10 11 12 13 14 15 16 17 18 19 20 21 22 23 24 25 26 27 28 29 30 31 32 33 34 35 36 37 38 39 40 41 42 43 44 45 46 47 48 49 50
000
ASUS42 KCHS 082112
RWRCHS

REGIONAL WEATHER ROUNDUP
NATIONAL WEATHER SERVICE CHARLESTON SC
400 PM EST THU DEC 08 2016

NOTE: "FAIR" INDICATES FEW OR NO CLOUDS BELOW 12,000 FEET WITH NO
SIGNIFICANT WEATHER AND/OR OBSTRUCTIONS TO VISIBILITY.

NOT ALL STATIONS ARE QUALITY CONTROLLED. USE DATA WITH CAUTION...
ESPECIALLY DEWPOINT OBSERVATIONS.

SCZ027-030-031-034>040-042>050-082200-
...SOUTHEAST SOUTH CAROLINA...

CITY           SKY/WX    TMP DP  RH WIND       PRES   REMARKS
N CHARLESTON   PTSUNNY   64  45  49 NW12      30.09R
WATERFRONT PRK   N/A     66  50  56 NW7       30.06R
MOUNT PLEASANT NOT AVBL
JOHNS ISLAND   FAIR      66  48  52 W13       30.09R
PINOPOLIS        N/A     61  48  63 NW13      30.00R
MONCKS CORNER  FAIR      61  43  51 NW6       30.11R
SUMMERVILLE    FAIR      63  45  51 NW10      30.11R
BEAUFORT MCAS  MOSUNNY   63  44  50 W15       30.12R
BEAUFORT ARPT  FAIR      61  45  55 NW13G18   30.11R
HILTON HEAD IS SUNNY     64  45  48 W12       30.11R
WALTERBORO     CLEAR     63  43  48 NW9G18    30.12R
ALLENDALE      FAIR      61  45  55 VRB6G14   30.13R

...SOUTHERN MIDLANDS AND PEE DEE...

CITY           SKY/WX    TMP DP  RH WIND       PRES   REMARKS
GEORGETOWN     MOCLDY    61  46  59 NW6       30.09R
KINGSTREE      FAIR      55  45  67 NW7       30.11R
ORANGEBURG     MOSUNNY   58  44  60 N7        30.13S
BARNWELL       NOT AVBL
AIKEN          MOCLDY    54  43  66 NW9       30.18R
MANNING        FAIR      55  43  62 NW9       30.12R
COLUMBIA       CLOUDY    58  32  37 NW13      30.15R
SUMTER         MOSUNNY   58  42  55 NW12      30.11R
FLORENCE       PTSUNNY   57  43  59 N12       30.11R
MYRTLE BEACH   MOSUNNY   61  46  59 N14       30.10R
N MYRTLE BEACH MOSUNNY   58  49  72 N7        30.07R

$$

GAZ063-065-086>088-099>101-113>116-118-119-134>141-150-082200-
...SOUTHEAST GEORGIA...

CITY           SKY/WX    TMP DP  RH WIND       PRES   REMARKS
SAVANNAH ARPT  CLOUDY    63  39  41 NW15      30.13R
HUNTER AAF     SUNNY     63  47  56 NW14      30.10R
FORT STEWART   NOT AVBL
STATESBORO     SUNNY     62  42  48 NW14      30.14R
SYLVANIA       CLEAR    N/A N/A N/A N14       30.15R
CLAXTON        FAIR      62  41  45 NW8G16    30.15R

...CSRA...CENTRAL AND FAR SOUTHEAST GEORGIA...

CITY           SKY/WX    TMP DP  RH WIND       PRES   REMARKS
THOMSON        SUNNY     55  32  42 NW8       30.24R
AUGUSTA-BUSH   SUNNY     61  36  39 N17       30.15R
AUGUSTA-DANIEL SUNNY     59  34  39 NW14G20   30.17R
SWAINSBORO     FAIR      61  34  36 NW17      30.18R
VIDALIA        CLOUDY    61  41  48 NW8G16    30.17R
EASTMAN        FAIR      61  10  13 N6G16     30.22R
HAZLEHURST     FAIR      63  37  39 N15G24    30.16R
ALMA           NOT AVBL
WAYCROSS       SUNNY     66  43  43 N12       30.17R
JESUP          FAIR      64  45  48 N9G20     30.16R
BAXLEY         FAIR      63  43  48 NW12G17   30.16R
BRUNSWICK      MOSUNNY   64  46  52 NW7       30.14R
SAINT SIMONS   MOSUNNY   64  44  48 NW8       30.13R

$$

SCZ027-028-034-036>038-045-046-048>050-GAZ119-141-082200-
...LAKE AND SUPPLEMENTAL COASTAL OBSERVATIONS...

STATION/POSITION TIME  TEMP    WIND        PRES    WAVE   SWELL
                       AIR SEA DIR/SP/G            HT/PER HT/PER/DIR
                 (UTC) (F)     (DEG/KT/KT) (MB)    (FT/S) (FT/S/D)
WINYAH BAY       NOT AVBL
LAKE MURRAY      2020   53     340/  4/ 12 1020.3R
ACE BASIN NERRS  1945   63     300/  4     1018.0
FORT PULASKI     2048   62 62  310/ 15/ 18 1019.7R
SAPELO ISLAND    2000   65     310/ 11     1019.0

$$

ANZ835-935-AMZ111-154-330-350-352-354-370-450-454-472-082200-
...C-MAN AND BUOY OBSERVATIONS...

STATION/POSITION TIME  TEMP    WIND        PRES    WAVE   SWELL
                       AIR SEA DIR/SP/G            HT/PER HT/PER/DIR
                 (UTC) (F)     (DEG/KT/KT) (MB)    (FT/S) (FT/S/D)
BUOY 41004       2050   61 74  310/  8/ 12 1018.0R   3/ 4   2/240/ 4
BUOY 41008       2050   62 65  300/ 14/ 17 1019.1R   2/ 3   2/ 30/11
FOLLY BEACH CMAN 2000   65     310/  6/  9 1018.4F
CAPERS NEARSHORE 2008   63 62  350/  4/  6 1017.6S
FRIPP NEARSHORE  2008   63 62  310/ 10/ 14 1018.5R


STATION/POSITION TIME  TEMP    WIND        PRES    WAVE   SWELL
                       AIR SEA DIR/SP/G            HT/PER HT/PER/DIR
                 (UTC) (F)     (DEG/KT/KT) (MB)    (FT/S) (FT/S/D)
5E ST. MARYS GA  2030      66                N/A     1/12
FRYING PAN BUOY  2050   60 74  300/ 14/ 19 1017.6R   3/ 4   2/ 80/10
BUOY 41025       2050   58 77  310/ 21/ 25 1015.5R   5/10   3/ 90/10
CAPE LOOKOUT NC  2000   56     300/ 14/ 15 1016.5R
BUOY 41002       2050   73 74  290/ 10/ 14 1016.3R   5/ 9   3/ 30/ 9
BUOY 41010       NOT AVBL
ST AUGUSTINE FL  2100   63 67   50/  5/  6 1020.3R


$$




USA.gov is the U.S. government's official web portal to all federal, state and local government web resources and services.